AU224 Weather Reports


time (UTC)temp
F
wind
direction
speed
knots
gust
knots
rain 1hr
in
rain 24hr
in
rain mn
in
humidity
%
barometer
mb
20260831131603 71 252 6.1 9.6 0.00 0.12 0.12 51 1015.4
20260831130105 72 360 1.7 10.4 0.00 0.12 0.12 49 1015.4
20260831124555 73 161 5.2 17.4 0.00 0.12 0.12 49 1015.3
20260831123059 73 360 7.0 20.0 0.00 0.12 0.12 49 1015.4
20260831121554 72 360 5.2 15.6 0.00 0.12 0.12 51 1015.4
20260831120104 72 15 1.7 17.4 0.00 0.12 0.12 54 1015.4
20260831114607 72 293 3.5 0.0 0.00 0.12 0.12 53 1015.5
20260831113102 71 286 10.4 17.4 0.00 0.12 0.12 55 1015.6
20260831111558 72 279 2.6 9.6 0.00 0.12 0.12 59 1015.7
20260831110106 72 360 7.0 14.8 0.00 0.12 0.12 59 1015.6
20260831104551 71 360 2.6 13.9 0.00 0.12 0.12 62 1015.6
20260831103059 69 360 2.6 13.9 0.00 0.12 0.12 64 1015.8
20260831101557 68 360 2.6 11.3 0.00 0.12 0.12 67 1015.8
20260831100116 70 0 0.9 7.8 0.00 0.12 0.12 65 1015.8
20260831094548 68 0 0.0 2.6 0.00 0.12 0.12 69 1016.0
20260831093102 67 284 0.9 7.0 0.00 0.12 0.12 69 1016.0
20260831091601 67 172 0.9 7.8 0.00 0.12 0.12 70 1016.0
20260831090101 67 0 0.0 8.7 0.00 0.12 0.12 71 1016.0
20260831084632 67 294 6.1 0.0 0.00 0.12 0.12 71 1015.8
20260831083054 66 209 0.9 11.3 0.00 0.12 0.12 72 1015.7
20260831081547 65 255 4.3 12.2 0.00 0.12 0.12 74 1015.7
20260831080110 65 360 1.7 10.4 0.00 0.12 0.12 78 1015.6
20260831074601 64 302 4.3 8.7 0.00 0.12 0.12 78 1015.4
20260831073048 64 0 0.9 9.6 0.00 0.12 0.12 80 1015.3
20260831071607 63 0 2.6 8.7 0.00 0.12 0.12 80 1015.4
20260831070055 62 0 0.0 6.1 0.00 0.12 0.12 81 1015.1
20260831064553 62 0 0.0 8.7 0.00 0.12 0.12 82 1015.0
20260831063101 61 0 1.7 8.7 0.00 0.12 0.12 83 1014.7
20260831061558 61 168 0.0 7.0 0.00 0.12 0.12 84 1014.7
20260831060105 60 0 0.0 2.6 0.00 0.12 0.12 85 1014.6
20260831054555 60 0 0.0 4.3 0.00 0.12 0.12 85 1014.5
20260831053107 60 0 0.0 3.5 0.00 0.12 0.12 86 1014.5
20260831051556 59 0 0.0 5.2 0.00 0.12 0.12 85 1014.5
20260831050124 59 0 0.0 4.3 0.00 0.12 0.12 85 1014.3
20260831044552 59 0 0.9 7.0 0.00 0.12 0.12 85 1014.3
20260831043100 59 0 0.0 3.5 0.00 0.12 0.12 85 1014.2
20260831041617 59 134 0.0 4.3 0.00 0.12 0.12 84 1014.1
20260831040050 59 0 0.9 6.1 0.00 0.12 0.12 84 1014.1
20260831034556 60 185 0.0 5.2 0.00 0.12 0.12 84 1014.0
20260831033110 60 0 0.0 5.2 0.02 0.12 0.12 83 1014.1
20260831031554 60 174 0.0 2.6 0.10 0.12 0.12 83 1014.2
20260831030056 60 0 0.0 3.5 0.12 0.12 0.12 83 1014.3
20260831024559 61 0 0.0 10.4 0.11 0.11 0.11 82 1014.1
20260831023053 61 360 7.0 18.2 0.10 0.10 0.10 81 1014.6
20260831021549 62 272 1.7 0.0 0.01 0.01 0.01 79 1015.0
20260831014603 61 0 0.0 0.9 0.00 0.00 0.00 79 1011.7
20260831013059 62 0 0.0 0.0 0.00 0.00 0.00 79 1011.5
20260831011552 62 0 0.0 0.0 0.00 0.00 0.00 79 1011.7
20260831010106 62 0 0.0 0.0 0.00 0.00 0.00 79 1011.8
20260831004555 62 0 0.0 1.7 0.00 0.00 0.00 78 1012.0
20260831003101 62 0 0.0 0.0 0.00 0.00 0.00 77 1012.2
20260831001544 62 0 0.0 0.0 0.00 0.00 0.00 76 1012.3
20260831000055 62 0 0.0 0.0 0.00 0.00 0.00 75 1012.3
20260830234559 63 0 0.0 0.0 0.00 0.00 0.00 74 1012.3
20260830233056 63 0 0.0 0.0 0.00 0.00 0.00 74 1012.5
20260830231602 63 0 0.0 0.0 0.00 0.00 0.00 74 1012.6
20260830230053 64 0 0.0 0.0 0.00 0.00 0.00 74 1012.9
20260830224557 64 0 0.0 0.0 0.00 0.00 0.00 73 1012.8
20260830223055 64 0 0.0 0.0 0.00 0.00 0.00 73 1013.0
20260830221553 64 0 0.0 0.0 0.00 0.00 0.00 73 1013.1
20260830220059 65 0 0.0 0.0 0.00 0.00 0.00 73 1013.2
20260830214550 65 0 0.0 0.0 0.00 0.00 0.00 72 1013.2
20260830213059 65 0 0.0 0.0 0.00 0.00 0.00 72 1013.2
20260830211555 65 0 0.0 0.0 0.00 0.00 0.00 71 1013.4
20260830210105 65 0 0.0 0.0 0.00 0.00 0.00 71 1013.3
20260830204611 65 0 0.0 0.0 0.00 0.00 0.00 70 1013.3
20260830203058 66 0 0.0 0.0 0.00 0.00 0.00 69 1013.4
20260830201557 66 0 0.0 0.0 0.00 0.00 0.00 69 1013.4
20260830200108 66 0 0.0 0.9 0.00 0.00 0.00 69 1013.5
20260830194615 67 0 0.0 0.0 0.00 0.00 0.00 67 1013.5
20260830193058 68 0 0.0 0.0 0.00 0.00 0.00 66 1013.4
20260830191558 68 0 0.0 0.0 0.00 0.00 0.00 65 1013.5
20260830190049 69 0 0.0 0.0 0.00 0.00 0.00 63 1013.4
20260830184557 70 0 0.0 0.0 0.00 0.00 0.00 62 1013.5
20260830183114 71 0 0.0 0.0 0.00 0.00 0.00 60 1013.3
20260830181556 72 0 0.0 0.0 0.00 0.00 0.00 59 1013.2
20260830180105 73 0 0.0 0.0 0.00 0.00 0.00 58 1013.2
20260830174556 73 0 0.0 0.9 0.00 0.00 0.00 56 1013.0
20260830173115 74 0 0.0 3.5 0.00 0.00 0.00 55 1013.0
20260830171557 74 0 0.0 2.6 0.00 0.00 0.00 54 1013.0
20260830170057 75 253 0.0 4.3 0.00 0.00 0.00 53 1013.0
20260830164556 75 360 1.7 0.0 0.00 0.00 0.00 53 1012.9
20260830163055 75 360 2.6 8.7 0.00 0.00 0.00 52 1013.0
20260830161623 76 272 0.9 8.7 0.00 0.00 0.00 52 1012.9
20260830160052 77 142 0.9 11.3 0.00 0.00 0.00 50 1012.9
20260830154603 77 242 1.7 8.7 0.00 0.00 0.00 50 1012.9
20260830153100 77 196 0.0 7.8 0.00 0.00 0.00 50 1013.0
20260830151557 77 360 2.6 9.6 0.00 0.00 0.00 51 1013.2
20260830150109 77 360 4.3 10.4 0.00 0.00 0.00 52 1013.2
20260830144551 77 360 6.1 12.2 0.00 0.00 0.00 52 1013.1
20260830143057 78 360 1.7 3.5 0.00 0.00 0.00 51 1013.2
20260830141553 78 167 1.7 10.4 0.00 0.00 0.00 53 1013.3
20260830140054 78 0 0.9 11.3 0.00 0.00 0.00 52 1013.3
20260830134558 77 296 3.5 10.4 0.00 0.00 0.00 52 1013.3
20260830133058 78 0 0.9 9.6 0.00 0.00 0.00 51 1013.4